RH
29 33 35 31 29 29 28 26 26 29 34 36 38 37 39 43 40 32 30 32 37 42 44 45 46 50 49 46 49 49 43 44 46 41 39 44 50 57 60 60 58 58 59 56 56 61 61 59 63 66 64 61 58 57 57 55 55 59 59 61 59 55 54 54 54 57 57 56 55 52 49 46 44 42 40 36 32 28 24 25 26 22 22 23 24 24
28 35 32 24 22 21 19 18 21 28 33 35 36 36 36 38 36 29 30 34 35 39 40 39 44 48 44 41 46 48 43 45 48 43 41 46 52 56 54 54 54 54 54 54 58 62 61 60 58 62 66 61 56 55 55 53 53 55 55 57 56 54 55 54 51 53 54 53 53 50 47 45 44 42 42 37 28 23 21 20 19 18 21 25 28 29
31 33 25 19 17 15 15 16 20 27 32 34 34 33 33 37 41 35 33 37 37 37 40 39 42 44 41 38 43 46 44 46 48 43 42 45 46 48 49 52 55 55 57 59 60 61 61 63 60 60 64 62 57 55 55 54 52 53 52 54 53 52 55 54 52 53 53 51 50 48 46 44 43 39 36 33 27 27 26 22 21 18 18 24 30 30
30 24 17 15 14 16 20 18 21 28 29 31 32 33 31 34 43 41 36 40 42 39 41 43 42 44 45 41 42 45 43 46 50 47 45 46 44 42 45 50 53 54 57 58 58 59 57 59 61 60 62 62 59 54 54 55 54 52 50 51 51 52 54 52 52 54 50 49 50 48 45 44 44 38 35 33 31 33 33 29 28 24 22 24 28 29
25 17 13 14 13 16 23 21 21 28 30 27 26 30 31 31 36 37 36 40 43 39 40 45 45 45 45 44 46 47 45 46 49 48 47 47 42 41 44 46 47 49 52 54 56 56 55 56 57 60 63 63 62 59 55 55 55 53 50 50 50 52 53 50 51 51 45 45 48 46 45 46 46 43 40 39 37 39 39 38 36 32 32 30 28 31
21 15 13 16 16 15 21 23 22 28 32 27 21 22 25 28 33 36 37 39 42 42 40 44 52 52 47 47 47 47 49 49 48 49 47 45 42 42 44 45 46 47 50 54 55 54 56 57 57 61 64 62 64 66 61 55 53 52 52 52 52 53 53 48 46 46 46 48 49 49 50 50 48 47 44 41 41 42 41 41 42 41 41 36 29 30
17 13 13 17 18 19 21 22 20 23 30 28 19 17 19 26 32 34 38 41 43 45 41 42 54 57 52 50 47 46 50 49 48 49 47 47 47 44 43 45 48 49 51 54 53 54 55 55 57 61 62 62 64 64 61 56 54 53 52 53 54 54 50 44 42 45 50 55 56 57 57 54 51 48 42 37 39 40 37 38 43 45 45 40 33 28
20 18 16 17 19 23 25 21 15 19 28 25 15 15 18 24 29 31 39 44 40 40 41 41 47 55 55 50 45 45 47 46 48 50 49 49 48 46 44 47 50 52 55 55 51 53 54 53 58 57 55 60 62 60 58 57 58 57 53 54 57 56 51 44 42 46 52 58 61 61 60 56 51 44 37 35 36 38 37 37 39 43 45 43 37 30
22 19 17 20 23 25 24 19 13 13 21 19 13 15 17 21 26 30 38 43 36 34 41 41 41 52 56 49 44 45 45 46 47 48 50 49 48 49 48 49 53 55 55 53 51 53 55 55 60 58 54 57 58 59 60 57 58 61 58 58 59 58 53 44 42 47 54 60 60 58 58 56 48 41 39 40 40 37 37 36 35 37 43 45 41 35
18 15 14 17 22 23 17 13 12 12 14 13 13 18 21 24 29 31 35 39 38 36 41 42 41 51 55 49 48 48 45 46 46 47 51 51 50 52 53 50 52 55 52 48 47 50 53 54 58 59 57 57 55 56 60 59 58 61 61 59 57 57 54 46 42 46 51 56 55 50 52 52 45 41 43 45 42 35 34 38 36 34 37 43 43 38
13 12 13 14 16 16 12 11 13 14 13 12 17 23 28 31 33 34 34 36 39 37 37 38 40 48 54 52 51 48 45 47 48 50 51 49 49 52 55 53 50 53 53 47 43 47 52 53 56 58 57 57 55 54 57 58 57 59 60 57 52 52 53 51 48 50 51 52 50 47 49 49 43 40 41 42 40 35 35 40 39 35 37 41 40 38
16 17 16 16 15 13 15 16 16 16 15 17 24 28 32 34 33 36 39 39 38 35 34 35 38 47 54 54 51 45 41 44 47 49 46 44 47 50 54 54 51 53 54 50 46 47 50 51 53 55 55 56 56 54 54 54 54 56 56 56 53 51 50 51 53 54 54 52 48 46 47 42 39 39 39 38 39 40 42 43 40 36 37 41 40 39
25 26 20 19 18 15 20 25 25 24 20 24 30 30 36 40 31 30 39 41 38 35 32 32 37 45 49 49 46 41 40 42 43 45 43 42 47 50 51 53 55 56 54 52 52 51 50 48 49 49 50 52 53 52 54 53 52 51 51 52 53 54 52 52 55 57 57 53 43 39 40 38 38 40 40 41 42 46 47 46 42 36 36 43 43 42
33 29 24 23 22 17 19 27 32 32 28 26 28 29 37 41 33 33 41 41 42 42 33 31 37 42 44 47 43 39 41 44 45 45 44 46 49 49 49 52 56 56 56 57 57 56 53 50 49 47 46 49 50 51 54 55 53 51 50 49 50 53 54 52 53 55 55 49 39 35 37 38 38 37 39 43 46 47 45 42 41 38 37 42 44 44
39 35 29 26 24 19 19 23 24 27 29 25 21 27 35 35 33 38 41 36 41 46 36 35 44 43 43 46 43 40 42 44 47 47 46 49 50 47 46 50 52 53 56 58 58 58 56 52 51 50 49 52 52 51 54 55 54 52 51 51 50 50 51 49 48 48 47 45 40 39 40 40 40 37 37 41 44 46 43 38 38 38 36 38 41 43
41 39 30 23 22 19 19 22 20 24 31 27 25 33 33 26 26 30 30 25 32 41 38 39 48 47 44 46 46 45 45 44 45 48 51 51 49 46 44 48 52 55 57 58 60 63 59 57 59 57 56 57 55 54 56 57 56 55 55 56 56 56 55 53 52 51 49 47 44 43 45 45 43 41 40 41 42 45 44 39 38 38 36 36 38 41
41 40 28 21 22 19 18 21 20 25 31 30 35 38 27 22 24 27 30 28 31 42 43 42 48 48 46 50 51 48 48 48 47 51 55 51 48 46 44 48 52 55 58 57 61 68 66 62 62 59 57 57 56 56 58 60 60 60 60 60 61 62 60 59 57 55 53 51 47 45 46 48 46 41 40 41 43 46 44 39 39 41 42 39 38 40
36 34 26 21 23 20 18 19 19 23 26 27 32 31 23 25 29 30 33 34 36 42 46 49 49 48 52 55 54 52 52 51 48 53 57 51 46 45 46 50 53 55 59 56 57 65 67 64 61 59 57 56 57 59 61 64 64 63 62 61 61 60 60 63 62 58 56 54 52 49 47 49 50 45 39 39 44 48 45 40 40 46 47 42 41 42
30 31 26 20 22 21 18 20 22 22 22 23 23 21 23 33 41 38 33 34 39 39 46 56 52 53 64 62 56 56 54 50 50 54 57 50 45 46 48 51 52 55 59 58 57 59 60 63 63 61 59 58 61 64 64 67 68 64 59 58 63 67 67 68 65 61 60 58 56 55 53 53 54 51 45 42 46 50 48 44 44 49 50 46 45 46
28 32 30 22 20 21 21 28 32 31 31 30 28 27 29 34 39 36 30 34 43 43 45 55 56 61 71 64 56 56 51 49 53 53 52 50 47 48 51 52 51 55 58 58 57 56 57 61 61 60 62 64 69 70 66 66 68 64 58 57 61 66 68 70 70 69 67 64 62 61 60 60 58 56 53 50 52 53 52 51 52 54 54 51 48 48
28 34 34 24 20 22 26 35 38 37 38 37 37 39 39 36 34 36 38 39 43 45 44 49 58 67 68 60 55 54 50 50 54 51 49 51 49 48 53 54 52 54 56 54 52 54 58 61 61 63 66 65 68 70 66 63 62 63 63 60 58 59 60 63 67 69 69 70 70 66 63 64 64 65 66 63 59 58 58 57 58 59 57 54 52 52
29 35 34 28 29 33 34 34 31 29 30 29 32 37 38 37 37 41 48 44 40 44 43 46 61 67 61 57 55 51 51 52 51 50 50 52 52 50 51 52 52 54 56 53 51 53 56 58 61 64 65 64 66 68 65 60 60 62 61 58 58 62 64 63 64 66 65 67 71 72 70 69 69 74 82 78 66 61 63 61 60 60 59 56 55 55
24 30 32 35 39 39 35 29 26 26 23 21 27 32 33 37 38 42 50 46 39 42 40 42 60 66 59 56 54 52 53 51 48 51 52 53 55 55 50 47 49 52 52 51 52 53 53 55 57 58 58 60 62 63 59 57 60 62 57 53 58 65 68 69 71 71 67 64 68 76 80 80 79 79 84 85 75 65 66 67 63 61 61 59 56 54
23 28 33 39 37 35 33 28 25 23 19 25 36 35 33 39 40 38 43 42 37 42 43 44 57 65 60 56 54 54 54 49 47 51 54 56 58 58 53 49 49 50 51 52 52 53 55 56 54 52 53 54 54 55 53 53 61 65 61 56 57 58 57 60 66 67 62 59 63 71 76 79 79 75 75 81 82 74 68 69 69 66 62 58 55 52
29 35 40 41 37 36 40 39 38 33 28 36 45 38 33 39 39 36 41 42 39 44 44 42 52 60 58 56 56 54 52 49 46 49 55 58 58 58 56 56 57 55 53 54 54 54 55 56 53 52 55 56 53 52 50 50 58 65 63 59 54 51 51 53 57 58 55 56 60 65 67 69 72 71 69 73 81 84 79 74 72 71 65 58 53 52
31 38 43 47 49 52 52 54 55 49 42 43 44 40 37 38 37 36 40 43 44 47 46 45 51 57 56 55 57 56 52 50 48 51 55 57 57 57 57 60 63 60 56 56 55 54 53 52 52 52 54 56 53 51 52 53 53 54 57 57 51 49 51 53 54 54 55 57 62 64 64 65 66 69 72 72 75 84 87 83 78 74 68 61 56 55
28 35 41 47 56 61 58 58 57 51 49 49 46 45 43 37 33 35 38 44 50 52 52 51 53 57 59 58 59 59 54 51 53 54 56 57 57 59 60 62 62 59 59 58 56 55 53 52 54 54 53 51 50 49 51 53 53 52 54 57 54 49 49 51 52 51 53 56 62 65 65 65 64 64 68 72 74 78 83 87 87 84 78 69 61 59
29 39 43 44 49 52 49 49 48 46 48 48 44 44 42 36 34 35 40 47 53 54 56 57 57 60 63 61 61 61 56 54 57 55 56 58 58 58 60 60 59 59 61 63 61 58 57 56 57 58 55 51 50 50 51 53 57 56 55 57 58 53 50 50 50 50 51 53 57 63 67 69 68 64 65 72 77 77 79 84 88 90 89 80 68 63
34 45 48 45 44 42 38 38 39 40 41 39 38 38 37 36 37 37 40 44 46 51 59 62 62 64 66 63 61 60 58 58 57 56 57 58 56 57 59 59 59 61 62 65 64 62 61 59 58 57 56 55 53 51 52 55 58 58 58 59 61 59 56 54 52 51 51 50 52 57 62 66 68 68 68 72 76 79 82 83 84 88 92 87 74 65
37 47 48 44 42 39 35 34 35 36 35 34 35 36 36 39 41 41 45 46 45 50 55 58 62 64 63 62 60 58 59 58 57 57 58 56 55 57 60 60 60 61 62 62 61 61 60 59 57 57 56 55 52 49 49 51 53 55 58 60 60 63 65 64 60 58 56 55 54 54 56 59 64 68 70 72 73 77 82 83 80 79 83 86 80 69
37 43 41 38 40 41 37 35 34 33 34 37 39 40 39 42 47 48 47 47 49 53 54 54 59 61 59 60 60 60 60 58 57 59 58 56 58 58 58 59 60 61 62 60 58 58 57 56 57 56 56 53 49 47 47 48 48 49 53 56 56 60 66 67 67 69 68 65 62 60 58 58 60 65 69 73 75 77 80 82 81 77 75 79 83 76
31 33 33 32 40 45 40 36 34 33 37 42 43 44 45 47 51 53 51 47 50 55 54 54 60 63 60 59 60 62 62 60 60 62 61 60 60 59 58 59 59 58 57 55 53 52 51 52 53 53 54 53 51 49 50 51 50 47 48 54 54 54 58 60 62 67 71 71 70 67 66 65 64 64 66 70 74 77 79 80 81 81 77 74 78 79
29 31 32 32 40 45 39 36 38 37 40 46 46 45 47 48 49 53 52 48 47 50 53 56 61 62 58 56 59 60 61 61 61 62 62 61 60 59 59 58 56 54 52 49 48 46 47 49 49 49 50 50 49 50 51 52 52 48 48 55 56 53 53 54 54 56 61 69 73 72 72 74 71 69 68 69 70 73 77 79 79 81 83 79 76 78
32 38 38 33 36 42 39 38 40 40 45 53 51 44 44 47 49 50 50 48 46 45 48 50 53 54 54 54 56 57 57 59 60 59 59 60 59 58 58 57 54 52 51 49 46 45 46 45 44 44 44 45 47 47 45 46 47 45 44 48 52 52 52 54 53 52 53 58 62 65 71 78 78 76 73 71 70 70 72 76 76 77 81 82 79 80
33 40 39 32 33 40 41 39 42 47 52 54 51 46 45 46 46 45 45 47 47 45 45 46 48 50 52 53 54 56 58 59 60 59 58 58 57 56 55 54 51 49 49 50 46 44 43 40 40 41 40 40 41 40 38 39 40 41 40 42 47 51 52 52 52 51 50 49 50 51 57 66 74 77 78 76 75 74 73 74 74 74 78 82 82 82
36 40 35 31 35 38 38 40 44 52 54 51 47 45 44 44 43 44 48 50 49 48 48 48 49 51 55 57 57 58 59 59 59 58 57 56 56 56 54 52 48 45 47 47 43 40 38 36 38 39 36 35 34 32 32 34 35 37 38 40 46 48 47 48 47 45 43 43 43 43 44 50 57 64 71 77 79 81 81 79 77 77 79 82 83 82
38 40 34 33 37 37 39 47 53 54 55 52 50 47 45 46 48 48 52 54 52 50 53 53 53 55 57 58 57 57 56 57 60 60 56 54 55 54 53 49 42 41 44 42 37 35 32 31 35 37 34 32 29 27 28 31 32 34 35 37 39 39 38 40 40 39 38 39 40 39 37 40 44 47 51 59 68 79 85 85 83 82 81 83 83 82
35 36 34 35 36 34 39 50 55 56 57 55 53 51 47 47 48 46 48 54 53 52 56 59 57 57 57 56 54 53 51 55 62 62 54 50 50 49 47 42 36 38 41 36 30 28 26 26 31 33 30 28 26 23 25 27 28 29 31 33 35 35 34 35 35 35 35 38 40 39 35 33 36 38 39 43 51 62 71 78 83 85 86 85 84 82
29 31 33 37 37 32 34 42 48 54 60 59 56 53 48 45 44 41 43 53 57 55 58 61 59 56 56 54 51 48 47 51 59 59 51 47 45 42 39 35 32 34 34 30 26 25 24 24 27 27 25 25 24 23 24 26 26 27 28 30 33 34 33 34 35 34 34 36 37 36 34 31 30 34 39 45 49 49 51 56 66 77 84 85 84 84
30 29 31 38 40 35 31 37 48 56 59 59 56 53 48 44 42 42 46 56 60 59 59 60 58 56 57 55 53 52 49 49 52 53 49 44 40 35 33 31 29 28 28 27 26 25 22 24 26 25 25 25 24 23 24 25 26 27 26 27 29 29 29 31 31 30 32 33 29 30 33 32 30 31 36 44 51 50 47 48 51 61 73 82 84 83
30 28 29 33 37 36 33 40 52 57 55 54 54 52 47 42 41 45 52 57 58 58 59 59 57 58 57 55 54 53 52 49 47 45 43 38 34 31 30 28 26 26 26 26 26 24 22 23 24 24 24 24 24 23 23 23 23 24 24 23 24 24 24 25 26 28 32 32 28 30 34 34 32 33 34 39 46 46 46 48 49 51 59 71 80 82
26 22 24 27 29 32 34 39 50 56 53 50 49 47 43 42 46 52 55 57 57 57 58 58 58 58 56 53 51 49 47 45 40 35 34 33 30 28 27 26 26 26 25 24 25 25 22 21 22 22 22 22 22 22 21 21 21 21 21 22 25 25 23 23 25 28 31 32 30 33 36 35 33 32 32 35 40 40 40 43 45 46 50 55 65 76
25 20 23 27 26 26 29 34 42 49 49 44 42 42 41 43 49 53 53 54 56 55 54 54 53 51 48 47 46 43 39 37 33 30 30 30 28 26 26 26 26 25 24 24 24 24 22 20 21 21 20 20 20 19 19 19 19 19 20 21 23 23 23 23 25 26 26 27 28 30 32 32 30 29 29 33 37 38 39 39 40 43 47 47 51 61
22 19 27 35 28 23 30 37 40 42 41 39 38 41 44 44 44 45 47 50 51 49 50 50 48 45 41 39 40 40 37 33 30 28 27 27 27 27 26 26 25 25 24 23 22 23 22 20 19 20 19 19 18 17 17 18 18 18 19 20 21 21 20 21 23 24 23 23 25 26 28 28 26 26 27 31 35 36 37 40 43 45 46 46 47 51
23 21 30 37 31 26 31 36 35 34 34 36 38 40 42 42 42 42 44 47 48 46 46 46 44 42 38 36 38 41 37 31 28 27 26 26 27 26 25 26 25 24 23 21 21 21 20 18 18 18 18 18 17 17 16 17 18 18 20 21 21 21 21 22 22 23 23 23 24 24 25 25 25 25 25 27 31 32 32 35 40 44 47 48 49 49
25 19 20 27 27 25 26 26 25 26 28 31 35 39 40 41 42 42 43 44 45 45 44 43 41 40 37 34 35 36 33 29 27 27 25 24 25 25 25 25 25 23 21 19 18 19 19 18 17 17 17 17 17 16 16 17 18 19 20 21 22 22 22 24 24 24 24 24 24 25 24 25 27 28 27 26 27 28 30 33 35 39 45 50 51 51
23 16 15 21 24 23 26 26 23 23 26 28 31 35 37 37 39 40 41 42 43 43 42 39 38 37 35 32 30 30 28 27 27 26 24 23 23 23 23 22 22 22 20 17 17 18 18 17 17 18 18 17 17 16 17 17 18 19 20 20 21 22 22 23 24 24 24 24 24 24 24 25 26 26 26 26 26 27 31 35 36 36 40 47 50 51
25 18 17 24 26 26 29 29 24 24 27 29 30 33 34 34 35 36 37 37 37 36 35 34 33 33 32 29 27 27 27 26 26 25 24 23 22 22 21 20 20 20 18 17 17 18 17 17 18 18 18 18 18 18 18 19 20 20 21 21 21 22 24 25 26 26 26 26 25 24 24 24 24 23 23 24 26 27 29 33 36 36 37 42 49 53
25 20 20 26 31 32 32 29 25 25 28 29 31 33 34 34 33 33 34 34 33 32 31 31 31 30 29 28 27 26 26 25 25 24 23 22 22 21 20 19 19 18 17 17 17 17 17 18 19 19 19 19 18 19 20 21 22 23 23 24 24 25 27 28 28 28 27 27 27 27 27 26 25 24 23 23 25 25 26 32 39 41 39 38 43 48
24 22 22 27 32 35 34 30 27 27 31 34 34 34 35 35 34 33 32 32 31 30 29 29 29 28 28 28 27 26 26 25 24 23 23 22 21 20 19 19 18 17 17 17 17 17 18 19 19 20 19 18 20 22 23 24 25 26 26 26 26 27 28 30 30 29 27 26 28 29 29 28 27 27 26 25 27 28 29 33 39 42 42 42 43 44
23 22 24 27 28 31 34 34 31 31 34 36 34 34 36 35 33 31 30 29 28 28 27 28 28 27 26 26 25 25 25 25 23 22 22 21 20 19 18 18 17 17 17 17 17 18 19 20 20 20 20 20 23 25 26 27 27 28 28 28 28 28 29 31 32 31 27 24 24 25 25 27 29 30 29 30 33 35 33 32 33 35 39 42 43 42